Regional Weather Roundup
Issued by NWS Jackson, KY

Home | Current Version | Previous Version | Text Only | Print | Product List | Glossary Off
Versions: 1 2 3 4 5 6 7 8 9 10 11 12 13 14 15 16 17 18 19 20 21 22 23 24 25 26 27 28

000
ASUS43 KJKL 301310
RWRJKL

EAST KENTUCKY HOURLY WEATHER ROUNDUP
NATIONAL WEATHER SERVICE JACKSON KY
900 AM EDT MON MAY 30 2016

NOTE: "FAIR" INDICATES FEW OR NO CLOUDS BELOW 12,000 FEET WITH
NO SIGNIFICANT WEATHER AND/OR OBSTRUCTIONS TO VISIBILITY.

* THESE REPORTS ARE NOT UNDER NWS QUALITY CONTROL AND MAY NOT
  REPORT WEATHER SUCH AS PRECIPITATION AND FOG.

KYZ079-080-083-085-087-088-110-112-115-119-120-301400
...EASTERN KENTUCKY...

CITY           SKY/WX    TMP DP  RH WIND       PRES   REMARKS
JACKSON        SUNNY     70  63  78 CALM      30.07R
LONDON         CLOUDY    69  64  84 SW7       30.07R
SOMERSET*      MOSUNNY   70  68  94 CALM      30.08S
MONTICELLO*    SUNNY     72  66  81 N8        30.09R
WILLIAMSBURG*  CLOUDY    61  61 100 CALM      30.08R
MIDDLESBORO*   CLOUDY    63  63 100 CALM      30.09S
HARLAN APT*    CLOUDY   N/A N/A N/A CALM      30.09R
HAZARD APT*    MOSUNNY   70  70 100 CALM      30.07R
BLACK MTN*       N/A     68  61  77 NE3         N/A
PIKE CO APT*   CLOUDY    65  65 100 CALM      30.08R FOG
BIG SANDY APT* CLOUDY    64  64 100 CALM      30.07R FOG
MOREHEAD APT*  MOSUNNY   70  66  88 NW3       30.08R
ASHLAND*       MOSUNNY   66  64  94 NW5       30.03R
$$

KYZ035-036-041-042-044-050-067-078-099-301400
...CENTRAL KENTUCKY...

CITY           SKY/WX    TMP DP  RH WIND       PRES   REMARKS
MT STERLING*   PTSUNNY   70  66  88 W3        30.07R
FLEMING/MASON* CLOUDY    65  64  97 CALM      30.08R
DANVILLE*      SUNNY     72  63  73 NW5       30.08R
RICHMOND*      SUNNY     70  64  83 W6        30.06R
LEXINGTON      SUNNY     72  65  78 W3        30.06S
FRANKFORT      SUNNY     73  64  73 N3        30.05R
LOUISVILLE     MOSUNNY   76  61  59 N5        30.05S
LEBANON*         N/A     72  64  78 NW3       30.07S
GLASGOW*       SUNNY     73  62  66 CALM      30.07R
BOWLING GREEN  SUNNY     76  64  66 VRB3      30.06S
$$

KYZ091>093-OHZ055-061-077-WVZ005-015-034-035-042-301400
...SOUTHERN OHIO/WEST VIRGINIA...

CITY           SKY/WX    TMP DP  RH WIND       PRES   REMARKS
COVINGTON      MOSUNNY   73  66  78 N5        30.06R
COLUMBUS       CLOUDY    69  63  81 N3        30.03S
DAYTON         MOSUNNY   74  60  61 CALM      30.07S
WILMINGTON     SUNNY     72  64  76 N5        30.06R
HUNTINGTON       N/A     71  63  75 SW3       30.04S
CHARLESTON       N/A     69  63  81 CALM      30.05R
PINEVILLE*       N/A     64  59  83 MISG      30.13S
BECKLEY          N/A     68  59  73 SE3       30.10F
BLUEFIELD        N/A     61  58  90 E3        30.13F
LOGAN CO APT*    N/A     68  63  83 CALM      30.06S
$$

VAZ002-007-008-TNZ017-027-036-066-071-301400
...SOUTHWEST VIRGINIA/EAST TENNESSEE...

CITY           SKY/WX    TMP DP  RH WIND       PRES   REMARKS
WISE*            N/A     68  63  83 SW3       30.14R
JONESVILLE*    FOG       63  63 100 CALM      30.10S VSB 3/4
ABINGDON*        N/A     65  61  85 CALM      30.11S
BRISTOL        MOSUNNY   68  61  78 CALM      30.09S
SEVIERVILLE*   SUNNY     66  61  82 S3        30.06S
KNOXVILLE      CLOUDY    66  65  96 NW3       30.07R FOG
OAK RIDGE      SUNNY     71  65  81 VRB3      30.07S
CROSSVILLE     SUNNY     72  64  76 VRB3      30.11R
NASHVILLE      MOSUNNY   77  64  64 VRB3      30.07R
$$

...KEY TO REMARKS...
VSB - VISIBILITY IN MILES
WCI - WIND CHILL INDEX
HX  - HEAT INDEX

$$




USA.gov is the U.S. government's official web portal to all federal, state and local government web resources and services.